[[{"header":{"parameterUnit":"m.s-1","parameterCategory":2,"la1":30.2991,"la2":30.254,"lo1":-89.0895,"lo2":-89.0444,"dy":0.0017,"dx":0.0017,"nx":28,"ny":28,"refTime":"2024-02-03T09:00:00:Z","depth":"0","parameterNumber":2,"parameterNumberName":"U-component_of_CURRENTS"},"data":[0,0,0,0,0,0,0,0,0,0,0,0,0,0,0,0,0,0,0,0,0,0,0,0,0,0,0,0,0,0,0,0,0,0,0,0,0,0,0,0,0,0,0,0,0,0,0,0,0,0,0,0,0,0,0,0,0,0,0.3653,0.3653,0,0.368,0.368,0.3681,0.3661,0.366,0.3659,0.3659,0.3639,0.3639,0.3639,0,0,0,0,0,0,0,0,0,0,0,0,0,0.3596,0.3596,0.3653,0.3653,0.3654,0.368,0.368,0.3681,0.3661,0.366,0.3659,0.3658,0.3639,0.3639,0.3639,0,0,0,0,0,0,0,0,0,0,0,0,0,0.3619,0.3597,0.3653,0.3649,0.3649,0.368,0.368,0.3681,0.3661,0.366,0.3659,0.3658,0.3639,0.3639,0.3639,0.366,0,0,0.364,0.364,0,0,0,0,0,0,0,0,0.3618,0.3621,0.3649,0.3649,0.3649,0.3668,0.3653,0.3672,0.3661,0.3654,0.3659,0.3657,0.3647,0.3646,0.3651,0.3659,0.3658,0.364,0.364,0.364,0.364,0,0,0,0,0,0,0,0.3616,0.362,0.3661,0.365,0.365,0.365,0.3652,0.3657,0.3653,0.3654,0.3654,0.3661,0.3646,0.3651,0.365,0.3658,0.364,0.364,0.364,0.364,0.3722,0.3724,0,0,0,0,0,0,0.3618,0.3618,0.366,0.3662,0.3634,0.3652,0.3654,0.3661,0.3654,0.3653,0.3662,0.366,0.3651,0.365,0.3649,0.3701,0.364,0.364,0.364,0.372,0.3722,0.3724,0,0,0,0,0,0,0.3617,0.3622,0.3659,0.3643,0.3648,0.3655,0.3662,0.3662,0.3673,0.366,0.3657,0.3674,0.365,0.3649,0.3668,0.3699,0.364,0.364,0.3717,0.372,0.3723,0.3787,0,0,0,0,0,0,0.3615,0.3621,0.3627,0.3643,0.3649,0.3685,0.3664,0.3664,0.368,0.3678,0.367,0.3666,0.3649,0.3668,0.3668,0.3698,0.364,0.3715,0.3719,0.3722,0.3783,0.3792,0.38,0,0,0,0,0,0.3613,0.3626,0.3627,0.3632,0.3656,0.3687,0.369,0.3689,0.3682,0.3694,0.3692,0.3667,0.3693,0.367,0.3669,0.37,0.3713,0.3717,0.3722,0.3778,0.379,0.38,0,0,0,0,0,0,0.3598,0.3626,0.3627,0.3646,0.3668,0.3684,0.3697,0.37,0.371,0.3708,0.3689,0.3687,0.3721,0.3706,0.3681,0.3739,0.3701,0.3706,0.3744,0.3755,0.3764,0.3787,0.364,0,0,0,0,0,0.36,0.3619,0.3645,0.3659,0.3674,0.3689,0.3701,0.3706,0.3718,0.3721,0.3717,0.3721,0.3742,0.3742,0.3754,0.3779,0.3791,0.3802,0.3811,0.3818,0.3839,0.389,0.3906,0.374,0.374,0.374,0,0,0.3596,0.3616,0.3624,0.3658,0.3674,0.3707,0.3693,0.3721,0.3751,0.3719,0.3751,0.3755,0.3759,0.3792,0.3805,0.3779,0.3873,0.3824,0.383,0.3848,0.3897,0.3913,0.3927,0.3743,0.3742,0.3742,0,0,0.3605,0.362,0.3641,0.3668,0.3704,0.3723,0.3736,0.3763,0.3778,0.3809,0.3806,0.3835,0.3841,0.3864,0.3873,0.3943,0.3926,0.3939,0.3993,0.4042,0.4056,0.4068,0.4105,0.412,0.3934,0.3934,0.3934,0,0.3597,0.3624,0.3652,0.3684,0.3707,0.3735,0.3766,0.3798,0.3826,0.3849,0.3825,0.3883,0.3883,0.3949,0.3974,0.3964,0.3981,0.3946,0.4053,0.4066,0.4077,0.4112,0.4128,0.3938,0.3938,0.3937,0.3937,0,0.3623,0.3648,0.3666,0.3717,0.3753,0.3782,0.3835,0.3871,0.3887,0.3912,0.3974,0.3984,0.4017,0.4025,0.4018,0.4108,0.4091,0.4064,0.4023,0.4098,0.4129,0.4145,0.3943,0.3942,0.3941,0.394,0,0,0.3584,0.3666,0.3668,0.3694,0.3768,0.3796,0.3872,0.3937,0.3984,0.4016,0.4074,0.4124,0.4131,0.4147,0.415,0.4192,0.4288,0.4165,0.4166,0.4197,0.4393,0.4357,0.437,0.4274,0.4277,0.4279,0.4381,0,0.3586,0.364,0.369,0.3744,0.3776,0.3841,0.3907,0.3977,0.4028,0.4093,0.4139,0.4191,0.4179,0.4195,0.4246,0.4286,0.4332,0.4263,0.4321,0.4323,0.4278,0.4389,0.426,0.4338,0.4396,0.4399,0.4401,0,0.3583,0.3621,0.367,0.3755,0.3776,0.3822,0.3925,0.3988,0.4105,0.4148,0.4223,0.4257,0.4357,0.4314,0.4438,0.4392,0.4408,0.4425,0.4428,0.4387,0.4317,0.4274,0.4364,0.427,0.4424,0.4422,0.4421,0,0.3521,0.3602,0.3635,0.3663,0.3771,0.3812,0.3874,0.3993,0.4059,0.4186,0.4251,0.4352,0.4421,0.447,0.4531,0.4486,0.4652,0.4583,0.4567,0.4564,0.4464,0.4447,0.4467,0.4666,0.4666,0.4666,0.4666,0,0.3489,0.3514,0.3606,0.3621,0.3673,0.3769,0.3842,0.3929,0.4063,0.4153,0.427,0.4365,0.4466,0.4569,0.4581,0.4651,0.4698,0.4617,0.4606,0.4482,0.4466,0.4385,0.4336,0.467,0.4669,0.4668,0.4667,0,0.3413,0.347,0.3511,0.3611,0.3641,0.3677,0.3808,0.3867,0.402,0.4148,0.4197,0.4406,0.455,0.4642,0.4745,0.4728,0.4656,0.4774,0.4625,0.4595,0.4449,0.4408,0.4265,0.4136,0.4764,0.4764,0.4764,0,0.3378,0.3391,0.3476,0.3494,0.3535,0.3605,0.3656,0.3813,0.3897,0.4164,0.4226,0.4435,0.4568,0.4744,0.4764,0.4812,0.466,0.469,0.4579,0.4464,0.4412,0.4217,0.4103,0.447,0.4468,0.4466,0.4465,0,0.331,0.334,0.3371,0.3406,0.3448,0.3502,0.3599,0.3667,0.3872,0.3998,0.419,0.4323,0.4564,0.4596,0.4705,0.47,0.4479,0.4649,0.4573,0.424,0.3988,0.3848,0.4375,0.4447,0.4449,0.445,0.4451,0.4452,0.3251,0.3249,0.3285,0.3306,0.3346,0.3385,0.3389,0.3522,0.363,0.3801,0.4031,0.4174,0.438,0.4529,0.4504,0.4416,0.4362,0.4293,0.4273,0.41,0.3911,0.4406,0.4434,0.4435,0.4437,0.4438,0.4439,0,0.316,0.3165,0.3184,0.319,0.3172,0.3244,0.3327,0.3315,0.3371,0.3593,0.3729,0.3949,0.4033,0.4154,0.4216,0.4092,0.3859,0.3974,0.3678,0.3597,0.4096,0.4022,0.3909,0.3909,0.391,0.391,0.391,0.391,0.3113,0.3078,0.3079,0.3004,0.3007,0.2943,0.2955,0.2972,0.3082,0.32,0.333,0.3524,0.3868,0.4028,0.3961,0.3849,0.3544,0.3392,0.3351,0.3741,0.3768,0.3793,0.3712,0.3537,0.3536,0.2698,0.2692,0.2687]},{"header":{"parameterUnit":"m.s-1","parameterCategory":2,"la1":30.2991,"la2":30.254,"lo1":-89.0895,"lo2":-89.0444,"dy":0.0017,"dx":0.0017,"nx":28,"ny":28,"refTime":"2024-02-03T09:00:00:Z","depth":"0","parameterNumber":3,"parameterNumberName":"V-component_of_CURRENTS"},"data":[0,0,0,0,0,0,0,0,0,0,0,0,0,0,0,0,0,0,0,0,0,0,0,0,0,0,0,0,0,0,0,0,0,0,0,0,0,0,0,0,0,0,0,0,0,0,0,0,0,0,0,0,0,0,0,0,0,0,0.0037,0.0037,0,-0.0041,-0.0042,-0.0043,-0.01,-0.01,-0.01,-0.01,-0.02,-0.0202,-0.0204,0,0,0,0,0,0,0,0,0,0,0,0,0,0.0066,0.0066,0.0037,0.0037,0.0036,-0.0041,-0.0042,-0.0044,-0.01,-0.01,-0.01,-0.01,-0.0199,-0.0202,-0.0205,0,0,0,0,0,0,0,0,0,0,0,0,0,0.0025,0.0066,0.0037,0.0001,-0.0003,-0.0041,-0.0042,-0.0044,-0.01,-0.01,-0.01,-0.0101,-0.0198,-0.0201,-0.0205,-0.0221,0,0,-0.0216,-0.0218,0,0,0,0,0,0,0,0,0.0027,0.0024,0.0007,0.0003,-0.0001,-0.0059,-0.0068,-0.0103,-0.01,-0.0066,-0.01,-0.0101,-0.0152,-0.016,-0.0177,-0.0226,-0.023,-0.0216,-0.0219,-0.022,-0.0221,0,0,0,0,0,0,0,0.003,0.0026,0.0003,0.0006,0.0001,-0.0037,-0.0042,-0.0076,-0.0109,-0.0069,-0.0072,-0.0077,-0.0155,-0.0174,-0.018,-0.0231,-0.0216,-0.022,-0.0222,-0.0223,-0.0294,-0.0294,0,0,0,0,0,0,0.005,0.003,0.0006,0.0001,0.0016,-0.0036,-0.0043,-0.0042,-0.0108,-0.0118,-0.0076,-0.0079,-0.0167,-0.0176,-0.0184,-0.0186,-0.022,-0.0224,-0.0226,-0.0294,-0.0294,-0.0294,0,0,0,0,0,0,0.0051,0.0049,0.0009,0.0015,0.0008,-0.0036,-0.0035,-0.0043,-0.0056,-0.0113,-0.0124,-0.0079,-0.0168,-0.0179,-0.0204,-0.0191,-0.0225,-0.0229,-0.0295,-0.0294,-0.0294,-0.0203,0,0,0,0,0,0,0.0052,0.005,0.0056,0.0017,0.0009,0.0001,-0.0034,-0.0045,-0.0057,-0.0061,-0.0119,-0.0129,-0.0169,-0.0198,-0.0207,-0.0196,-0.0231,-0.0295,-0.0295,-0.0294,-0.0207,-0.02,-0.0194,0,0,0,0,0,0.0053,0.0071,0.0057,0.0054,0.002,0.0002,-0.0006,-0.0041,-0.0056,-0.0055,-0.0095,-0.0127,-0.0201,-0.02,-0.0212,-0.0201,-0.0295,-0.0295,-0.0294,-0.021,-0.0201,-0.0194,0,0,0,0,0,0,0.0088,0.0066,0.005,0.006,0.0038,-0.0006,-0.0008,-0.0031,-0.0062,-0.0065,-0.0122,-0.0134,-0.0154,-0.019,-0.0188,-0.0222,-0.0254,-0.0256,-0.0186,-0.0179,-0.0172,-0.0142,-0.0234,0,0,0,0,0,0.01,0.0106,0.0075,0.0083,0.0076,0.0036,0.0024,0.0003,-0.0029,-0.0043,-0.0084,-0.0126,-0.0161,-0.0178,-0.0216,-0.023,-0.0269,-0.0233,-0.0226,-0.022,-0.0204,-0.0254,-0.025,-0.0291,-0.0291,-0.0291,0,0,0.0115,0.0104,0.0107,0.0091,0.0069,0.0073,0.0027,0.0021,0.0024,-0.0048,-0.0057,-0.0105,-0.0161,-0.0179,-0.0191,-0.0206,-0.023,-0.022,-0.0214,-0.0201,-0.0253,-0.0249,-0.0245,-0.0291,-0.0291,-0.0291,0,0,0.0154,0.014,0.0159,0.0147,0.0128,0.0105,0.011,0.0073,0.0057,0.0041,-0.001,-0.0044,-0.0098,-0.0133,-0.0158,-0.0138,-0.0196,-0.0155,-0.0096,-0.0144,-0.0141,-0.0138,-0.0182,-0.0185,-0.015,-0.015,-0.015,0,0.0174,0.0195,0.0162,0.0176,0.0179,0.0129,0.0153,0.0128,0.0088,0.0083,0.0052,-0.0025,-0.0074,-0.0093,-0.0089,-0.0121,-0.0159,-0.0118,-0.0134,-0.0133,-0.0132,-0.0178,-0.0181,-0.0145,-0.0146,-0.0146,-0.0147,0,0.0225,0.0241,0.0252,0.0257,0.0254,0.0267,0.0236,0.0228,0.02,0.017,0.0142,0.0069,0.0028,0.0001,-0.0039,-0.0053,-0.0086,-0.0121,-0.0148,-0.0122,-0.0172,-0.0178,-0.0139,-0.014,-0.0142,-0.0143,0,0,0.028,0.0288,0.0296,0.0317,0.0302,0.0312,0.0318,0.0314,0.033,0.0267,0.0277,0.0199,0.0154,0.0123,0.0062,0.0018,-0.0015,-0.0039,-0.0044,-0.0072,-0.012,-0.0127,-0.0134,-0.0055,-0.0056,-0.0056,-0.0158,0,0.0335,0.0389,0.0376,0.0431,0.0457,0.0423,0.044,0.0426,0.0399,0.0392,0.0308,0.0285,0.0201,0.0185,0.0128,0.0026,-0.0025,0.0016,-0.015,-0.0155,-0.0156,-0.0139,-0.0091,-0.0176,-0.0164,-0.0165,-0.0165,0,0.0397,0.0427,0.0494,0.053,0.054,0.0564,0.0593,0.0601,0.0567,0.0544,0.0495,0.0423,0.0354,0.0277,0.0115,0.0145,0.0025,-0.0065,-0.0072,-0.0109,-0.0171,-0.0203,-0.0187,-0.0412,-0.0174,-0.0173,-0.0173,0,0.0466,0.0514,0.0578,0.0588,0.0615,0.0646,0.0661,0.0652,0.0681,0.0644,0.0656,0.0541,0.0506,0.0339,0.0152,0.013,-0.0026,-0.0086,-0.0208,-0.0211,-0.0217,-0.0219,-0.0425,-0.0203,-0.0203,-0.0203,-0.0202,0,0.0537,0.0585,0.062,0.0655,0.0741,0.0729,0.0811,0.0803,0.0815,0.0875,0.0746,0.0765,0.052,0.0399,0.02,-0.0004,0.0004,-0.0187,-0.0233,-0.0185,-0.0182,-0.0416,-0.0534,-0.0206,-0.0206,-0.0205,-0.0204,0,0.0602,0.062,0.0697,0.075,0.0778,0.0841,0.0918,0.0971,0.0968,0.1044,0.104,0.0935,0.0778,0.0527,0.0269,0.0082,-0.0249,-0.021,-0.0132,-0.0166,-0.0495,-0.0608,-0.085,-0.0946,-0.0367,-0.0368,-0.0368,0,0.0638,0.0687,0.0777,0.0836,0.0867,0.0957,0.1022,0.1049,0.1121,0.1164,0.1216,0.109,0.1039,0.0653,0.0292,-0.0055,-0.027,-0.0245,-0.0286,-0.0497,-0.0658,-0.075,-0.082,-0.0268,-0.0267,-0.0267,-0.0267,0,0.0709,0.0742,0.0807,0.0931,0.1019,0.1125,0.1228,0.1313,0.1369,0.1443,0.1519,0.1484,0.1124,0.0793,0.0311,0.0071,-0.0384,-0.0252,-0.0495,-0.0609,-0.0698,-0.0815,-0.0224,-0.0265,-0.0265,-0.0265,-0.0265,-0.0265,0.0763,0.0822,0.0914,0.1034,0.1142,0.1289,0.1397,0.1523,0.1675,0.1814,0.1763,0.1772,0.1284,0.0634,0.0259,-0.038,-0.0411,-0.0574,-0.0698,-0.0775,-0.0856,-0.0253,-0.033,-0.033,-0.0331,-0.0331,-0.0332,0,0.0829,0.0897,0.1008,0.1154,0.1284,0.1333,0.153,0.1657,0.1867,0.2001,0.2076,0.1881,0.1261,0.063,-0.0244,-0.0731,-0.0903,-0.0998,-0.113,-0.1185,-0.0667,-0.065,-0.0769,-0.0769,-0.0768,-0.0768,-0.0768,-0.0768,0.0863,0.0975,0.1032,0.1251,0.136,0.1554,0.1679,0.1883,0.2038,0.2231,0.2276,0.2265,0.1802,0.0182,-0.0936,-0.1193,-0.1528,-0.1598,-0.1802,-0.1464,-0.1434,-0.1406,-0.1421,-0.1699,-0.17,-0.2241,-0.2246,-0.2251]}],[{"header":{"parameterUnit":"m.s-1","parameterCategory":2,"la1":30.2991,"la2":30.254,"lo1":-89.0895,"lo2":-89.0444,"dy":0.0017,"dx":0.0017,"nx":28,"ny":28,"refTime":"2024-02-03T09:00:00:Z","depth":"2","parameterNumber":2,"parameterNumberName":"U-component_of_CURRENTS"},"data":[0,0,0,0,0,0,0,0,0,0,0,0,0,0,0,0,0,0,0,0,0,0,0,0,0,0,0,0,0,0,0,0,0,0,0,0,0,0,0,0,0,0,0,0,0,0,0,0,0,0,0,0,0,0,0,0,0,0,0.3357,0.3357,0,0.3386,0.3386,0.3386,0.3381,0.338,0.338,0.338,0.3374,0.3374,0.3374,0,0,0,0,0,0,0,0,0,0,0,0,0,0.3302,0.3303,0.3357,0.3357,0.3358,0.3386,0.3386,0.3386,0.3381,0.338,0.338,0.338,0.3374,0.3374,0.3374,0,0,0,0,0,0,0,0,0,0,0,0,0,0.3325,0.3303,0.3357,0.336,0.3361,0.3386,0.3386,0.3386,0.3381,0.338,0.338,0.3379,0.3374,0.3374,0.3374,0.3384,0,0,0.3374,0.3375,0,0,0,0,0,0,0,0,0.3324,0.3327,0.3359,0.336,0.3361,0.3381,0.3365,0.3385,0.3381,0.3371,0.338,0.3379,0.3375,0.3375,0.3378,0.3384,0.3384,0.3374,0.3375,0.3375,0.3375,0,0,0,0,0,0,0,0.3322,0.3326,0.3366,0.336,0.3361,0.3362,0.3365,0.3368,0.3373,0.3372,0.3372,0.3379,0.3375,0.3378,0.3378,0.3384,0.3374,0.3375,0.3375,0.3375,0.3454,0.3456,0,0,0,0,0,0,0.3324,0.3324,0.3365,0.3367,0.3344,0.3364,0.3367,0.3373,0.3373,0.3374,0.3379,0.3379,0.3378,0.3378,0.3378,0.3436,0.3375,0.3375,0.3375,0.3452,0.3455,0.3457,0,0,0,0,0,0,0.3323,0.3327,0.3364,0.3348,0.3353,0.3366,0.3373,0.3374,0.3392,0.338,0.3379,0.3397,0.3378,0.3378,0.34,0.3434,0.3375,0.3375,0.345,0.3453,0.3456,0.3523,0,0,0,0,0,0,0.3321,0.3327,0.3335,0.3348,0.3354,0.3389,0.3374,0.3375,0.3397,0.3397,0.3395,0.3393,0.3377,0.34,0.34,0.3433,0.3375,0.3448,0.3452,0.3455,0.3518,0.3528,0.3536,0,0,0,0,0,0.3319,0.3332,0.3335,0.334,0.3364,0.3391,0.3394,0.3399,0.3399,0.3412,0.3415,0.3394,0.3424,0.3402,0.3401,0.3435,0.3446,0.345,0.3455,0.3514,0.3526,0.3536,0,0,0,0,0,0,0.3308,0.3334,0.3337,0.3356,0.3377,0.3391,0.3406,0.3412,0.3426,0.3429,0.3414,0.3413,0.3451,0.3436,0.3412,0.3472,0.3434,0.3439,0.3479,0.349,0.3499,0.3518,0.3375,0,0,0,0,0,0.3312,0.333,0.3353,0.3368,0.3383,0.3399,0.3412,0.342,0.3434,0.344,0.344,0.3448,0.3468,0.3473,0.3484,0.3509,0.3519,0.3534,0.3543,0.3551,0.3569,0.3614,0.3629,0.3472,0.3472,0.3472,0,0,0.331,0.3328,0.3337,0.3368,0.3384,0.3415,0.3405,0.3435,0.3465,0.3437,0.3475,0.3481,0.3485,0.352,0.3535,0.351,0.3602,0.3557,0.3563,0.3577,0.3621,0.3636,0.3649,0.3475,0.3474,0.3474,0,0,0.3319,0.3337,0.3357,0.3382,0.3417,0.3434,0.3449,0.3476,0.3495,0.3528,0.3529,0.3559,0.357,0.3591,0.36,0.3667,0.3653,0.3668,0.3722,0.3766,0.3779,0.379,0.3824,0.3838,0.3666,0.3666,0.3666,0,0.3317,0.3342,0.3367,0.3397,0.342,0.3448,0.3478,0.351,0.3541,0.3565,0.3548,0.3607,0.3609,0.3671,0.3698,0.3688,0.3706,0.3676,0.3777,0.3789,0.38,0.3831,0.3846,0.367,0.3669,0.3669,0.3669,0,0.3341,0.3366,0.3383,0.3431,0.3464,0.3493,0.3543,0.3581,0.3603,0.3628,0.3692,0.3702,0.3737,0.3747,0.3742,0.3828,0.3814,0.3787,0.3747,0.382,0.3848,0.3862,0.3675,0.3674,0.3673,0.3672,0,0,0.331,0.3384,0.3387,0.3412,0.3481,0.3506,0.3579,0.3641,0.3689,0.3726,0.3784,0.3835,0.3846,0.3861,0.3867,0.3907,0.3999,0.3885,0.3886,0.3915,0.4097,0.4053,0.4064,0.3988,0.3991,0.3993,0.4087,0,0.3314,0.3364,0.3408,0.346,0.3489,0.355,0.3614,0.3681,0.3732,0.3798,0.3844,0.3899,0.389,0.3912,0.3959,0.3997,0.404,0.3976,0.4027,0.4029,0.3977,0.408,0.3758,0.3812,0.41,0.4102,0.4104,0,0.3314,0.3348,0.3395,0.3472,0.3492,0.3538,0.3636,0.3696,0.3809,0.3853,0.3928,0.3963,0.406,0.4023,0.4137,0.4097,0.4114,0.4128,0.4131,0.4079,0.4012,0.3787,0.3827,0.4127,0.4126,0.4124,0.4122,0,0.326,0.3334,0.3367,0.3392,0.3492,0.3535,0.3594,0.3707,0.377,0.3896,0.3958,0.4056,0.4124,0.4169,0.4225,0.4187,0.4333,0.4272,0.4247,0.4242,0.3975,0.3943,0.4347,0.4347,0.4347,0.4346,0.4346,0,0.3233,0.3258,0.3345,0.336,0.3413,0.3502,0.3575,0.3658,0.3786,0.387,0.3983,0.4069,0.4169,0.426,0.4271,0.4328,0.4375,0.4291,0.4279,0.399,0.396,0.4229,0.4214,0.435,0.4349,0.4348,0.4348,0,0.3167,0.322,0.3261,0.3357,0.3386,0.3425,0.3552,0.3607,0.3754,0.3872,0.3922,0.4112,0.424,0.4324,0.4417,0.4396,0.4433,0.4429,0.409,0.4037,0.4295,0.4283,0.441,0.4409,0.4409,0.4409,0.4408,0,0.3136,0.315,0.3234,0.3253,0.3295,0.3367,0.3416,0.3564,0.364,0.3884,0.3939,0.413,0.4237,0.4389,0.4386,0.4419,0.446,0.4124,0.3995,0.4335,0.431,0.4298,0.4286,0.3659,0.3652,0.3647,0.3643,0,0.3076,0.3108,0.3138,0.3177,0.322,0.3267,0.3361,0.342,0.3609,0.3724,0.3889,0.4,0.419,0.4104,0.4189,0.4148,0.4094,0.4022,0.447,0.3707,0.3638,0.361,0.3621,0.3597,0.3601,0.3605,0.3607,0.3609,0.3026,0.3025,0.3062,0.3086,0.3126,0.3154,0.3153,0.3271,0.3363,0.35,0.3705,0.3757,0.3848,0.3817,0.3723,0.3651,0.3927,0.3726,0.3737,0.3754,0.3665,0.3601,0.3535,0.3539,0.3542,0.3545,0.3548,0,0.2942,0.2949,0.2969,0.2975,0.2954,0.3027,0.3092,0.3061,0.3096,0.3259,0.3359,0.3166,0.3163,0.3231,0.3079,0.3115,0.3021,0.2961,0.2796,0.285,0.2895,0.2754,0.2386,0.2382,0.2378,0.2374,0,0,0.2898,0.2865,0.2864,0.279,0.2797,0.2727,0.2729,0.2712,0.2769,0.2755,0.2758,0.3015,0.3161,0.2718,0.2693,0.2505,0.2632,0.2403,0.3351,0.3211,0.325,0.3378,0.3229,0,0,0,0,0]},{"header":{"parameterUnit":"m.s-1","parameterCategory":2,"la1":30.2991,"la2":30.254,"lo1":-89.0895,"lo2":-89.0444,"dy":0.0017,"dx":0.0017,"nx":28,"ny":28,"refTime":"2024-02-03T09:00:00:Z","depth":"2","parameterNumber":3,"parameterNumberName":"V-component_of_CURRENTS"},"data":[0,0,0,0,0,0,0,0,0,0,0,0,0,0,0,0,0,0,0,0,0,0,0,0,0,0,0,0,0,0,0,0,0,0,0,0,0,0,0,0,0,0,0,0,0,0,0,0,0,0,0,0,0,0,0,0,0,0,0.0161,0.016,0,0.009,0.0089,0.0089,0.0037,0.0036,0.0036,0.0036,-0.0054,-0.0056,-0.0059,0,0,0,0,0,0,0,0,0,0,0,0,0,0.0187,0.0187,0.0161,0.016,0.0159,0.0091,0.0089,0.0088,0.0037,0.0036,0.0036,0.0036,-0.0054,-0.0056,-0.0059,0,0,0,0,0,0,0,0,0,0,0,0,0,0.015,0.0187,0.0161,0.0127,0.0123,0.0091,0.0089,0.0088,0.0037,0.0036,0.0036,0.0036,-0.0053,-0.0056,-0.0059,-0.0071,0,0,-0.0069,-0.007,0,0,0,0,0,0,0,0,0.0152,0.0149,0.0132,0.0129,0.0125,0.0074,0.0066,0.0035,0.0037,0.0067,0.0036,0.0035,-0.0012,-0.0018,-0.0033,-0.0075,-0.0079,-0.0069,-0.0071,-0.0073,-0.0073,0,0,0,0,0,0,0,0.0155,0.0152,0.0131,0.0132,0.0127,0.0093,0.0088,0.0059,0.0029,0.0065,0.0061,0.0057,-0.0014,-0.003,-0.0036,-0.008,-0.0069,-0.0072,-0.0074,-0.0075,-0.0138,-0.0137,0,0,0,0,0,0,0.0172,0.0154,0.0133,0.0129,0.014,0.0094,0.0088,0.0089,0.003,0.0021,0.0057,0.0055,-0.0024,-0.0032,-0.0039,-0.0042,-0.0073,-0.0076,-0.0077,-0.0138,-0.0138,-0.0137,0,0,0,0,0,0,0.0173,0.0171,0.0136,0.0141,0.0135,0.0094,0.0096,0.0088,0.0076,0.0025,0.0015,0.0054,-0.0025,-0.0035,-0.0057,-0.0046,-0.0077,-0.008,-0.0138,-0.0138,-0.0138,-0.0056,0,0,0,0,0,0,0.0174,0.0172,0.0178,0.0143,0.0135,0.0128,0.0096,0.0087,0.0074,0.007,0.0019,0.001,-0.0026,-0.0052,-0.006,-0.0051,-0.0082,-0.0139,-0.0138,-0.0138,-0.0059,-0.0053,-0.0048,0,0,0,0,0,0.0175,0.0191,0.0179,0.0176,0.0145,0.0129,0.0122,0.009,0.0075,0.0076,0.0041,0.0012,-0.0055,-0.0054,-0.0064,-0.0055,-0.0139,-0.0138,-0.0138,-0.0062,-0.0054,-0.0048,0,0,0,0,0,0,0.0206,0.0186,0.0172,0.0181,0.0161,0.0122,0.012,0.0098,0.0071,0.0067,0.0017,0.0005,-0.0012,-0.0045,-0.0043,-0.0073,-0.0103,-0.0104,-0.0042,-0.0035,-0.0029,-0.0002,-0.0085,0,0,0,0,0,0.0217,0.0223,0.0195,0.0203,0.0196,0.0159,0.0148,0.0129,0.01,0.0087,0.005,0.0012,-0.0019,-0.0034,-0.0068,-0.008,-0.0116,-0.0083,-0.0077,-0.0072,-0.0057,-0.0106,-0.0103,-0.0135,-0.0135,-0.0135,0,0,0.0231,0.0221,0.0224,0.021,0.019,0.0194,0.0152,0.0145,0.0148,0.0083,0.0074,0.0031,-0.0018,-0.0035,-0.0045,-0.0059,-0.0082,-0.0071,-0.0066,-0.0054,-0.0105,-0.0102,-0.0099,-0.0135,-0.0135,-0.0135,0,0,0.0268,0.0255,0.0273,0.0262,0.0243,0.0224,0.0227,0.0193,0.0178,0.0163,0.0117,0.0085,0.0037,0.0006,-0.0016,0.0002,-0.0051,-0.0013,0.004,-0.0007,-0.0005,-0.0003,-0.0043,-0.0045,-0.0009,-0.0009,-0.0008,0,0.0286,0.0306,0.0275,0.0289,0.0292,0.0244,0.0268,0.0245,0.0208,0.0202,0.0173,0.0104,0.0059,0.0043,0.0046,0.0017,-0.0018,0.0021,0.0002,0.0003,0.0003,-0.0039,-0.0042,-0.0005,-0.0005,-0.0005,-0.0006,0,0.0335,0.0349,0.036,0.0365,0.0363,0.0374,0.0346,0.0338,0.0311,0.0283,0.0256,0.0189,0.0151,0.0126,0.0091,0.0076,0.0047,0.0014,-0.0011,0.0012,-0.0034,-0.004,0.0001,-0.0,-0.0001,-0.0002,0,0,0.0386,0.0394,0.0401,0.0421,0.0408,0.0417,0.0423,0.0419,0.0433,0.0373,0.0382,0.031,0.0266,0.0239,0.0183,0.014,0.0106,0.0087,0.0082,0.0057,0.0005,-0.0014,-0.0022,0.0067,0.0066,0.0066,-0.0028,0,0.0437,0.0489,0.0477,0.053,0.0555,0.0523,0.0539,0.0525,0.0498,0.049,0.041,0.039,0.0311,0.0296,0.024,0.0143,0.0096,0.0135,-0.0021,-0.0025,-0.0037,-0.0028,0.0019,-0.006,-0.0033,-0.0034,-0.0035,0,0.0496,0.0525,0.0589,0.0624,0.0633,0.0657,0.0683,0.0691,0.0657,0.0633,0.0586,0.0517,0.045,0.0378,0.0223,0.0251,0.0141,0.0056,0.005,0.0004,-0.0054,-0.0081,-0.0072,-0.0044,-0.0044,-0.0043,-0.0042,0,0.0561,0.0607,0.0668,0.0678,0.0705,0.0733,0.0749,0.0738,0.0765,0.0727,0.0737,0.0626,0.059,0.0433,0.0253,0.0236,0.008,0.003,-0.0092,-0.0095,-0.0099,-0.0101,-0.0079,-0.0079,-0.0079,-0.0078,-0.0078,0,0.0628,0.0674,0.0707,0.074,0.0823,0.0812,0.0889,0.0881,0.0891,0.0944,0.0821,0.0833,0.0602,0.0481,0.0295,0.0095,0.0106,-0.0074,-0.0118,-0.007,-0.0068,-0.009,-0.009,-0.0082,-0.0081,-0.008,-0.008,0,0.0689,0.0706,0.0779,0.083,0.0857,0.0918,0.0992,0.104,0.1035,0.1103,0.1098,0.099,0.0832,0.0593,0.0346,0.017,-0.0034,-0.011,-0.0034,-0.0067,-0.0192,-0.0186,-0.026,-0.0261,-0.0262,-0.0263,-0.0264,0,0.0722,0.0769,0.0855,0.0911,0.0941,0.1027,0.1089,0.1114,0.1181,0.1211,0.1257,0.1126,0.1062,0.0685,0.0344,0.0015,-0.0033,-0.0159,-0.019,-0.0174,-0.0209,-0.0202,-0.0196,-0.0167,-0.0167,-0.0167,-0.0167,0,0.0789,0.082,0.0882,0.1,0.1083,0.1185,0.1283,0.1361,0.1411,0.1471,0.1525,0.1475,0.1122,0.079,0.0331,0.0117,-0.0108,-0.0169,-0.0172,-0.0124,-0.0093,-0.0126,-0.0121,-0.0167,-0.0167,-0.0167,-0.0167,-0.0167,0.0839,0.0895,0.0981,0.1096,0.1199,0.1337,0.1438,0.1549,0.1683,0.1785,0.1728,0.1662,0.1284,0.0697,0.0296,-0.0123,-0.0102,-0.0243,-0.024,-0.0238,-0.0206,-0.0178,-0.0262,-0.0262,-0.0263,-0.0263,-0.0264,0,0.0899,0.0963,0.1069,0.1207,0.133,0.1379,0.1562,0.1669,0.1846,0.1917,0.1956,0.1606,0.1222,0.077,0.0147,-0.0215,-0.0236,-0.0325,-0.0274,-0.027,-0.0267,-0.0236,-0.0301,-0.0303,-0.0304,-0.0305,0,0,0.093,0.1034,0.1087,0.1294,0.1399,0.1581,0.1696,0.1858,0.1957,0.2038,0.1996,0.1902,0.1358,0.0902,0.0405,0.0038,-0.0028,-0.002,0.0057,0.0182,0.0189,-0.0166,-0.0106,0,0,0,0,0]}],[{"header":{"parameterUnit":"m.s-1","parameterCategory":2,"la1":30.2991,"la2":30.254,"lo1":-89.0895,"lo2":-89.0444,"dy":0.0017,"dx":0.0017,"nx":28,"ny":28,"refTime":"2024-02-03T09:00:00:Z","depth":"4","parameterNumber":2,"parameterNumberName":"U-component_of_CURRENTS"},"data":[0,0,0,0,0,0,0,0,0,0,0,0,0,0,0,0,0,0,0,0,0,0,0,0,0,0,0,0,0,0,0,0,0,0,0,0,0,0,0,0,0,0,0,0,0,0,0,0,0,0,0,0,0,0,0,0,0,0,0.2237,0.2238,0,0.2314,0.2315,0.2316,0.2384,0.2385,0.2386,0.2387,0.2474,0.2475,0.2476,0,0,0,0,0,0,0,0,0,0,0,0,0,0.2138,0.2139,0.2237,0.2238,0.2239,0.2314,0.2315,0.2316,0.2384,0.2385,0.2386,0.2388,0.2473,0.2475,0.2477,0,0,0,0,0,0,0,0,0,0,0,0,0,0.2193,0.214,0.2237,0.2284,0.2289,0.2314,0.2315,0.2316,0.2384,0.2385,0.2387,0.2388,0.2473,0.2475,0.2477,0.2461,0,0,0.2483,0.2484,0,0,0,0,0,0,0,0,0.219,0.2196,0.2276,0.2281,0.2286,0.2343,0.2312,0.2366,0.2383,0.2346,0.2387,0.2389,0.2431,0.2437,0.2445,0.2465,0.2468,0.2483,0.2485,0.2486,0.2486,0,0,0,0,0,0,0,0.2186,0.2193,0.2266,0.2277,0.2283,0.2297,0.2307,0.2322,0.2378,0.2349,0.2355,0.2366,0.2434,0.2443,0.2448,0.247,0.2483,0.2485,0.2487,0.2487,0.2622,0.2625,0,0,0,0,0,0,0.2179,0.219,0.2263,0.2268,0.2243,0.2298,0.2309,0.2322,0.2378,0.2388,0.2365,0.2369,0.2438,0.2445,0.2451,0.2562,0.2486,0.2488,0.2489,0.262,0.2623,0.2626,0,0,0,0,0,0,0.2177,0.2185,0.226,0.2232,0.2243,0.2299,0.2313,0.2322,0.2381,0.239,0.24,0.242,0.244,0.2448,0.2511,0.2561,0.2489,0.249,0.2617,0.2621,0.2624,0.2702,0,0,0,0,0,0,0.2174,0.2184,0.2214,0.2232,0.2244,0.2305,0.2312,0.2323,0.2384,0.2391,0.2439,0.2446,0.2442,0.2508,0.2513,0.2562,0.2492,0.2614,0.2619,0.2623,0.2696,0.2708,0.2717,0,0,0,0,0,0.217,0.2196,0.2215,0.2225,0.2276,0.2307,0.2315,0.2357,0.2386,0.2416,0.2456,0.2447,0.254,0.2512,0.2517,0.2568,0.2612,0.2618,0.2623,0.2692,0.2705,0.2717,0,0,0,0,0,0,0.217,0.2206,0.2227,0.2265,0.2299,0.232,0.2359,0.2385,0.2439,0.2465,0.2472,0.2482,0.2558,0.2552,0.2521,0.2621,0.2577,0.2583,0.2627,0.264,0.265,0.2661,0.2494,0,0,0,0,0,0.2182,0.2218,0.2246,0.2284,0.2305,0.2342,0.237,0.24,0.2438,0.2466,0.2499,0.2538,0.2574,0.2601,0.2627,0.2677,0.2678,0.2716,0.2726,0.2735,0.2749,0.2788,0.2803,0.2643,0.2643,0.2643,0,0,0.2194,0.222,0.2242,0.2288,0.2321,0.2358,0.2364,0.2422,0.2468,0.2465,0.2554,0.2579,0.2597,0.2659,0.2692,0.2666,0.2783,0.2741,0.2749,0.2758,0.2795,0.2811,0.2824,0.2646,0.2646,0.2645,0,0,0.2216,0.226,0.2292,0.2325,0.2383,0.2404,0.2432,0.2482,0.2528,0.2596,0.2616,0.2675,0.2725,0.275,0.2766,0.285,0.2839,0.2866,0.2926,0.2965,0.2978,0.2989,0.3015,0.3028,0.2868,0.2869,0.2869,0,0.2234,0.2272,0.2308,0.2346,0.2381,0.2431,0.2472,0.252,0.259,0.2631,0.2641,0.2745,0.2766,0.2837,0.2876,0.2874,0.2891,0.2874,0.2977,0.2989,0.2999,0.3022,0.3036,0.2873,0.2873,0.2872,0.2872,0,0.2263,0.2314,0.2339,0.2402,0.2446,0.2493,0.2552,0.2618,0.2677,0.2717,0.2818,0.2851,0.291,0.2931,0.2933,0.3027,0.3013,0.2986,0.2941,0.302,0.304,0.3052,0.2879,0.2878,0.2876,0.2875,0,0,0.2243,0.234,0.2354,0.2394,0.2482,0.2514,0.2608,0.2686,0.2754,0.2833,0.2913,0.2992,0.3023,0.3045,0.3062,0.3103,0.3197,0.3091,0.309,0.3109,0.3287,0.3091,0.3085,0.3192,0.3195,0.3197,0.3271,0,0.2258,0.2328,0.2379,0.2461,0.2499,0.2579,0.2656,0.2744,0.2819,0.2911,0.2976,0.306,0.3062,0.3108,0.3155,0.3193,0.3235,0.3179,0.3214,0.3215,0.3025,0.3094,0.3205,0.328,0.3283,0.3285,0.3287,0,0.2258,0.2307,0.2386,0.2489,0.2517,0.2585,0.2711,0.2786,0.2918,0.2983,0.3078,0.3129,0.3236,0.3212,0.332,0.329,0.3307,0.3319,0.3321,0.3118,0.3042,0.3186,0.3309,0.3307,0.3306,0.3304,0.3303,0,0.22,0.2308,0.2373,0.2409,0.2535,0.2606,0.2686,0.2817,0.2891,0.3043,0.3113,0.3224,0.3305,0.335,0.34,0.3376,0.3491,0.3445,0.3281,0.3268,0.3387,0.3373,0.3512,0.3511,0.3511,0.3511,0.3511,0,0.2164,0.2223,0.2364,0.2396,0.2488,0.2593,0.2704,0.28,0.2943,0.3025,0.3157,0.3225,0.335,0.3424,0.3437,0.3401,0.3524,0.3305,0.3276,0.3418,0.3408,0.3396,0.3381,0.3514,0.3513,0.3513,0.3512,0,0.2085,0.2177,0.2259,0.241,0.2464,0.2535,0.2705,0.2769,0.2932,0.3045,0.3104,0.3271,0.336,0.3445,0.3525,0.3433,0.3422,0.3377,0.3543,0.352,0.3163,0.3152,0.3185,0.3179,0.3174,0.3169,0.3166,0,0.2044,0.2083,0.2251,0.2303,0.2382,0.2504,0.2576,0.2747,0.2813,0.3036,0.307,0.3233,0.3318,0.3269,0.3376,0.3379,0.3341,0.331,0.3216,0.3163,0.3132,0.313,0.3126,0.3157,0.3156,0.3155,0.3153,0,0.1963,0.2051,0.2118,0.2222,0.2315,0.2391,0.2515,0.2546,0.2734,0.2907,0.2953,0.2995,0.3091,0.3136,0.3173,0.3166,0.331,0.3253,0.3263,0.3174,0.3129,0.3103,0.3106,0.3135,0.3137,0.3139,0.314,0,0.1914,0.1939,0.2041,0.2113,0.2215,0.2244,0.2327,0.2397,0.248,0.2718,0.2726,0.2894,0.3054,0.3028,0.3058,0.3044,0.2988,0.2873,0.2901,0.2923,0.2802,0.2704,0.2563,0,0,0,0,0,0.1843,0.1851,0.1915,0.1972,0.2063,0.2121,0.2264,0.235,0.2532,0.2492,0.2599,0.2666,0.2709,0.2797,0.2729,0.2958,0.3013,0.2867,0.2898,0.3033,0.3054,0.2937,0,0,0,0,0,0,0.1793,0.1851,0.1863,0.1835,0.1847,0.1921,0.2005,0.2134,0.2121,0.2318,0.2353,0.25,0.2584,0.2712,0.2673,0.2702,0.2666,0.2976,0.2969,0.3021,0.304,0.3057,0.2944,0,0,0,0,0]},{"header":{"parameterUnit":"m.s-1","parameterCategory":2,"la1":30.2991,"la2":30.254,"lo1":-89.0895,"lo2":-89.0444,"dy":0.0017,"dx":0.0017,"nx":28,"ny":28,"refTime":"2024-02-03T09:00:00:Z","depth":"4","parameterNumber":3,"parameterNumberName":"V-component_of_CURRENTS"},"data":[0,0,0,0,0,0,0,0,0,0,0,0,0,0,0,0,0,0,0,0,0,0,0,0,0,0,0,0,0,0,0,0,0,0,0,0,0,0,0,0,0,0,0,0,0,0,0,0,0,0,0,0,0,0,0,0,0,0,0.0183,0.0183,0,0.0141,0.0141,0.014,0.011,0.011,0.011,0.011,0.0049,0.0048,0.0046,0,0,0,0,0,0,0,0,0,0,0,0,0,0.0197,0.0197,0.0184,0.0183,0.0183,0.0141,0.0141,0.014,0.0111,0.011,0.011,0.011,0.005,0.0048,0.0046,0,0,0,0,0,0,0,0,0,0,0,0,0,0.0176,0.0197,0.0184,0.0164,0.0162,0.0141,0.0141,0.014,0.0111,0.011,0.011,0.011,0.005,0.0048,0.0046,0.0035,0,0,0.0039,0.0038,0,0,0,0,0,0,0,0,0.0177,0.0175,0.0167,0.0165,0.0163,0.0132,0.0123,0.0104,0.0111,0.0129,0.011,0.011,0.0076,0.0072,0.0063,0.0032,0.003,0.0039,0.0037,0.0036,0.0036,0,0,0,0,0,0,0,0.0179,0.0177,0.0165,0.0167,0.0164,0.0143,0.014,0.0119,0.0103,0.0127,0.0125,0.0123,0.0075,0.0065,0.0061,0.0029,0.0039,0.0037,0.0035,0.0035,-0.0011,-0.0011,0,0,0,0,0,0,0.0189,0.0178,0.0167,0.0164,0.0171,0.0143,0.014,0.0141,0.0103,0.0098,0.0123,0.0121,0.0069,0.0064,0.0059,0.0059,0.0036,0.0034,0.0033,-0.0012,-0.0011,-0.0011,0,0,0,0,0,0,0.0189,0.0188,0.0169,0.0171,0.0167,0.0144,0.0145,0.014,0.0136,0.01,0.0094,0.0124,0.0069,0.0062,0.0047,0.0055,0.0033,0.0031,-0.0012,-0.0012,-0.0011,0.0049,0,0,0,0,0,0,0.019,0.0189,0.0196,0.0172,0.0167,0.0165,0.0145,0.014,0.0135,0.0132,0.0099,0.0093,0.0068,0.0051,0.0045,0.0052,0.0029,-0.0012,-0.0012,-0.0011,0.0047,0.0051,0.0055,0,0,0,0,0,0.0191,0.0202,0.0196,0.0195,0.0177,0.0166,0.0162,0.0143,0.0135,0.0137,0.0114,0.0094,0.0048,0.005,0.0043,0.0049,-0.0012,-0.0012,-0.0011,0.0045,0.005,0.0055,0,0,0,0,0,0,0.0212,0.02,0.0193,0.02,0.0188,0.0161,0.0163,0.0149,0.0133,0.0133,0.0098,0.009,0.0079,0.0055,0.0057,0.0035,0.0014,0.0013,0.0059,0.0064,0.0068,0.009,0.0028,0,0,0,0,0,0.0221,0.0228,0.0208,0.0216,0.0212,0.0189,0.0183,0.0172,0.0153,0.0146,0.0121,0.0095,0.0074,0.0063,0.004,0.003,0.0,0.0028,0.0032,0.0036,0.0049,0.0004,0.0006,-0.001,-0.001,-0.001,0,0,0.0232,0.0226,0.023,0.0221,0.021,0.0215,0.0185,0.0183,0.0188,0.0142,0.014,0.0109,0.0074,0.0063,0.0055,0.0045,0.0024,0.0036,0.004,0.0051,0.0005,0.0006,0.0008,-0.001,-0.001,-0.001,0,0,0.0259,0.0252,0.0267,0.026,0.0251,0.0238,0.0241,0.0219,0.0211,0.0203,0.0171,0.0147,0.0116,0.0092,0.0075,0.0088,0.0047,0.0078,0.0118,0.0075,0.0076,0.0077,0.0041,0.0038,0.008,0.008,0.008,0,0.0274,0.0291,0.027,0.0281,0.0286,0.0254,0.0274,0.0258,0.0235,0.0232,0.0212,0.0164,0.0131,0.0118,0.0121,0.0098,0.0069,0.0105,0.0081,0.0081,0.0081,0.0043,0.0039,0.0083,0.0083,0.0083,0.0082,0,0.031,0.0325,0.0333,0.0341,0.0341,0.0352,0.0333,0.0329,0.0313,0.0295,0.0276,0.0226,0.02,0.0179,0.0155,0.0139,0.0118,0.0092,0.0072,0.0086,0.0046,0.004,0.0087,0.0086,0.0086,0.0085,0,0,0.0346,0.0358,0.0364,0.0383,0.0377,0.0386,0.0393,0.0393,0.0406,0.0363,0.0372,0.0318,0.0286,0.0266,0.0223,0.0184,0.015,0.0145,0.0141,0.0117,0.006,0.0046,0.0038,0.0119,0.0119,0.0118,0.0033,0,0.0385,0.0426,0.0421,0.0467,0.0488,0.0469,0.0483,0.0475,0.0458,0.0454,0.0392,0.0381,0.032,0.0312,0.0262,0.0182,0.014,0.0177,0.0045,0.0041,0.0032,0.0033,0.0116,0.0029,0.0027,0.0026,0.0026,0,0.0426,0.0451,0.0505,0.054,0.0549,0.0574,0.06,0.0608,0.0584,0.0568,0.0532,0.0482,0.0425,0.0371,0.0237,0.0263,0.0173,0.0102,0.0097,0.0062,0.0017,0.0009,0.0015,0.0016,0.0017,0.0018,0.0018,0,0.047,0.0513,0.0566,0.0577,0.0606,0.0635,0.0654,0.0649,0.0672,0.0647,0.0655,0.0565,0.0536,0.0406,0.0254,0.0246,0.0102,0.0068,-0.0032,-0.0034,-0.0022,-0.0022,-0.0026,-0.0026,-0.0026,-0.0025,-0.0025,0,0.0513,0.0555,0.0598,0.0625,0.07,0.0699,0.0768,0.0766,0.0778,0.0816,0.0726,0.0724,0.0544,0.0436,0.0284,0.0113,0.0118,-0.0019,-0.0056,0.0004,0.0009,-0.0026,-0.0025,-0.0029,-0.0028,-0.0027,-0.0027,0,0.0548,0.0573,0.0638,0.0694,0.0724,0.078,0.0855,0.0894,0.0897,0.0945,0.0944,0.0847,0.0702,0.051,0.0301,0.0167,-0.0005,-0.0068,0.0023,-0.0009,-0.012,-0.0115,-0.0185,-0.0186,-0.0187,-0.0188,-0.0189,0,0.0566,0.0606,0.0698,0.075,0.0784,0.0867,0.0924,0.0956,0.1004,0.1019,0.1044,0.093,0.0837,0.0537,0.0319,0.0025,-0.0023,-0.0114,-0.0129,-0.0107,-0.0136,-0.0129,-0.0123,-0.019,-0.019,-0.0191,-0.0191,0,0.0602,0.064,0.0696,0.0806,0.0886,0.0978,0.1064,0.1108,0.1149,0.1155,0.1129,0.0971,0.0807,0.0551,0.0322,0.0108,-0.0058,-0.0126,-0.0126,-0.0141,-0.0114,-0.0141,-0.0133,-0.0194,-0.0194,-0.0194,-0.0193,0,0.0631,0.0676,0.0756,0.0854,0.0961,0.106,0.11,0.1157,0.1204,0.1216,0.1205,0.1021,0.0917,0.0594,0.0384,0.017,0.0106,0.0027,0.0018,0.0019,0.0092,0.0157,0.0135,0,0,0,0,0,0.0652,0.0704,0.0794,0.0902,0.1009,0.1077,0.1182,0.1212,0.1258,0.1252,0.1233,0.1079,0.077,0.0634,0.0418,0.0342,0.0055,0.0079,-0.0044,-0.0214,-0.021,-0.0161,0,0,0,0,0,0,0.0664,0.0747,0.0791,0.093,0.1009,0.1133,0.1205,0.1235,0.1231,0.124,0.108,0.1013,0.0709,0.0895,0.0411,0.0346,0.0235,-0.0062,-0.0067,-0.0216,-0.0212,-0.0209,-0.0158,0,0,0,0,0]}]]